EW2281 Weather Reports


Display with metric or nautical units.
time (UTC)temp
F
wind
direction
speed
MPH
gust
MPH
rain 1hr
in
rain 24hr
in
rain mn
in
humidity
%
barometer
mb
20260906222242 76 24 0.0 1.0 0.00 0.00 0.00 62 972.1
20260906221736 77 27 0.0 3.0 0.00 0.00 0.00 61 972.1
20260906221230 77 27 1.0 3.0 0.00 0.00 0.00 61 972.1
20260906220724 77 41 1.0 2.0 0.00 0.00 0.00 63 972.0
20260906220217 76 18 1.0 5.0 0.00 0.00 0.00 63 972.0
20260906215712 76 9 2.0 5.0 0.00 0.00 0.00 61 972.1
20260906215206 76 11 1.0 4.0 0.00 0.00 0.00 61 972.0
20260906214701 76 25 1.0 3.0 0.00 0.00 0.00 62 971.9
20260906214153 76 355 1.0 3.0 0.00 0.00 0.00 61 971.9
20260906213647 76 349 1.0 3.0 0.00 0.00 0.00 62 971.9
20260906213142 76 30 1.0 3.0 0.00 0.00 0.00 63 971.9
20260906212636 76 35 1.0 3.0 0.00 0.00 0.00 61 972.0
20260906212130 77 26 0.0 3.0 0.00 0.00 0.00 61 971.9
20260906211624 77 33 0.0 2.0 0.00 0.00 0.00 60 971.9
20260906211118 76 36 0.0 2.0 0.00 0.00 0.00 60 972.0
20260906210839 76 36 0.0 2.0 0.00 0.00 0.00 66 972.0
20260906210106 76 161 0.0 0.0 0.00 0.00 0.00 64 972.0
20260906205600 76 163 0.0 0.0 0.00 0.00 0.00 62 972.0
20260906205054 76 36 0.0 0.0 0.00 0.00 0.00 63 972.0
20260906204548 76 13 0.0 0.0 0.00 0.00 0.00 61 971.9
20260906204041 76 22 0.0 0.0 0.00 0.00 0.00 62 972.0
20260906203536 76 23 0.0 1.0 0.00 0.00 0.00 63 971.9
20260906203505 75 27 0.0 1.0 0.00 0.00 0.00 64 972.0
20260906202524 76 28 0.0 1.0 0.00 0.00 0.00 62 972.0
20260906202017 76 26 0.0 2.0 0.00 0.00 0.00 61 972.0
20260906201511 76 26 1.0 2.0 0.00 0.00 0.00 59 972.0
20260906201006 77 49 1.0 3.0 0.00 0.00 0.00 59 972.1
20260906200500 77 196 1.0 3.0 0.00 0.00 0.00 61 972.0
20260906195954 76 175 1.0 6.0 0.00 0.00 0.00 63 972.1
20260906195454 76 21 1.0 8.0 0.00 0.00 0.00 60 972.2
20260906194954 76 35 2.0 8.0 0.00 0.00 0.00 63 972.2
20260906194456 76 16 1.0 6.0 0.00 0.00 0.00 60 972.3
20260906193955 76 13 2.0 7.0 0.00 0.00 0.00 63 972.2
20260906193449 76 22 2.0 9.0 0.00 0.00 0.00 65 972.2
20260906192950 76 348 1.0 9.0 0.00 0.00 0.00 60 972.2
20260906192448 76 5 1.0 4.0 0.00 0.00 0.00 61 972.2
20260906191947 76 175 1.0 5.0 0.00 0.00 0.00 59 972.2
20260906191446 76 15 1.0 5.0 0.00 0.00 0.00 62 972.1
20260906191205 76 24 0.0 3.0 0.00 0.00 0.00 62 972.1
20260906190446 75 181 1.0 6.0 0.00 0.00 0.00 63 972.2
20260906185945 75 24 2.0 6.0 0.00 0.00 0.00 63 972.2
20260906185447 75 34 1.0 6.0 0.00 0.00 0.00 64 972.3
20260906184946 74 28 2.0 8.0 0.00 0.00 0.00 66 972.4
20260906184446 74 329 2.0 8.0 0.00 0.00 0.00 66 972.5
20260906183947 74 337 1.0 4.0 0.00 0.00 0.00 68 972.5
20260906183703 74 34 1.0 2.0 0.00 0.00 0.00 66 972.5
20260906182942 74 27 0.0 2.0 0.00 0.00 0.00 66 972.5
20260906182436 75 17 1.0 4.0 0.00 0.00 0.00 65 972.6
20260906181934 74 13 1.0 4.0 0.00 0.00 0.00 67 972.6
20260906181431 74 337 2.0 5.0 0.00 0.00 0.00 67 972.6
20260906180933 74 34 1.0 5.0 0.00 0.00 0.00 64 972.7
20260906180431 75 154 1.0 3.0 0.00 0.00 0.00 68 972.7
20260906175930 74 335 1.0 7.0 0.00 0.00 0.00 67 972.7
20260906175428 75 26 1.0 7.0 0.00 0.00 0.00 66 972.8
20260906174928 75 166 0.0 5.0 0.00 0.00 0.00 68 972.8
20260906174428 74 176 1.0 4.0 0.00 0.00 0.00 66 972.8
20260906174148 75 24 1.0 5.0 0.00 0.00 0.00 66 972.9
20260906173428 75 11 1.0 5.0 0.00 0.00 0.00 69 972.8
20260906173145 75 13 1.0 5.0 0.00 0.00 0.00 65 972.8
20260906172429 75 26 1.0 4.0 0.00 0.00 0.00 65 972.9
20260906171927 75 26 1.0 3.0 0.00 0.00 0.00 64 973.0
20260906171424 75 312 1.0 2.0 0.00 0.00 0.00 66 973.1
20260906170924 74 196 1.0 3.0 0.00 0.00 0.00 69 973.1
20260906170426 73 184 1.0 3.0 0.00 0.00 0.00 70 973.1
20260906165926 73 23 1.0 5.0 0.00 0.00 0.00 69 973.1
20260906165426 72 23 1.0 5.0 0.00 0.00 0.00 74 973.2
20260906164925 72 17 1.0 5.0 0.00 0.00 0.00 70 973.2
20260906164426 72 170 1.0 5.0 0.00 0.00 0.00 71 973.4
20260906164204 73 14 1.0 4.0 0.00 0.00 0.00 72 973.3
20260906163426 73 171 0.0 3.0 0.00 0.00 0.00 70 973.4
20260906162925 72 19 0.0 2.0 0.00 0.00 0.00 72 973.4
20260906162643 71 157 0.0 2.0 0.00 0.00 0.00 74 973.4
20260906161921 71 161 0.0 2.0 0.00 0.00 0.00 75 973.4
20260906161421 70 186 1.0 5.0 0.00 0.00 0.00 77 973.5
20260906160922 70 67 2.0 5.0 0.00 0.00 0.00 75 973.5
20260906160421 70 24 1.0 3.0 0.00 0.00 0.00 76 973.6
20260906155922 70 351 0.0 3.0 0.00 0.00 0.00 76 973.6
20260906155422 70 45 1.0 3.0 0.00 0.00 0.00 76 973.6
20260906154922 70 38 1.0 4.0 0.00 0.00 0.00 75 973.6
20260906154421 70 41 0.0 4.0 0.00 0.00 0.00 76 973.6
20260906153922 70 20 0.0 3.0 0.00 0.00 0.00 77 973.6
20260906153642 69 22 1.0 3.0 0.00 0.00 0.00 78 973.6
20260906152918 69 17 2.0 8.0 0.00 0.00 0.00 78 973.5
20260906152418 69 36 3.0 8.0 0.00 0.00 0.00 78 973.5
20260906151917 69 42 2.0 5.0 0.00 0.00 0.00 78 973.5
20260906151417 69 30 2.0 5.0 0.00 0.00 0.00 78 973.5
20260906150916 68 0 2.0 6.0 0.00 0.00 0.00 79 973.5
20260906150416 68 24 2.0 6.0 0.00 0.00 0.00 78 973.5
20260906145916 68 15 1.0 5.0 0.00 0.00 0.00 78 973.5
20260906145417 69 44 1.0 5.0 0.00 0.00 0.00 79 973.4
20260906144918 69 28 1.0 5.0 0.00 0.00 0.00 82 973.4
20260906144643 68 19 0.0 4.0 0.00 0.00 0.00 83 973.4
20260906143918 68 16 0.0 2.0 0.00 0.00 0.00 87 973.3
20260906143416 67 192 0.0 2.0 0.00 0.00 0.00 86 973.3
20260906142913 66 152 0.0 5.0 0.00 0.00 0.00 89 973.3
20260906142410 65 11 0.0 5.0 0.00 0.00 0.00 89 973.3
20260906142357 65 17 0.0 2.0 0.00 0.00 0.00 90 973.2
20260906141408 65 49 0.0 4.0 0.00 0.00 0.00 91 973.2
20260906140906 64 9 0.0 4.0 0.00 0.00 0.00 91 973.2
20260906140406 64 34 0.0 4.0 0.00 0.00 0.00 92 973.2
20260906135900 64 10 0.0 4.0 0.00 0.00 0.00 92 973.1
20260906135402 64 39 1.0 4.0 0.00 0.00 0.00 93 973.1
20260906135123 63 15 1.0 4.0 0.00 0.00 0.00 93 972.9
20260906134400 63 33 0.0 4.0 0.00 0.00 0.00 93 972.9
20260906133858 63 32 0.0 2.0 0.00 0.00 0.00 94 972.9
20260906133354 63 41 0.0 3.0 0.00 0.00 0.00 94 972.9
20260906132852 63 26 0.0 3.0 0.00 0.00 0.00 95 972.8
20260906132346 62 36 0.0 3.0 0.00 0.00 0.00 95 972.8
20260906131847 62 37 0.0 3.0 0.00 0.00 0.00 95 972.7
20260906131346 62 286 1.0 3.0 0.00 0.00 0.00 96 972.7
20260906130843 62 44 0.0 3.0 0.00 0.00 0.00 97 972.7
20260906130344 62 32 0.0 3.0 0.00 0.00 0.00 98 972.7
20260906125843 61 128 0.0 0.0 0.00 0.00 0.00 99 972.8
20260906125342 61 128 0.0 0.0 0.00 0.00 0.00 99 972.7
20260906124838 61 128 0.0 0.0 0.00 0.00 0.00 100 972.8
20260906124336 61 128 0.0 0.0 0.00 0.00 0.00 100 972.7
20260906123836 60 128 0.0 0.0 0.00 0.00 0.00 100 972.6
20260906123333 60 44 0.0 0.0 0.00 0.00 0.00 100 972.5
20260906122832 60 44 0.0 0.0 0.00 0.00 0.00 100 972.5
20260906122329 60 44 0.0 1.0 0.00 0.00 0.00 100 972.4
20260906121828 60 44 0.0 1.0 0.00 0.00 0.00 100 972.3
20260906121328 59 30 0.0 0.0 0.00 0.00 0.00 100 972.2
20260906121046 59 30 0.0 0.0 0.00 0.00 0.00 100 972.2
20260906120545 58 30 0.0 0.0 0.00 0.00 0.00 100 972.2
20260906115827 58 30 0.0 0.0 0.00 0.00 0.00 100 972.1
20260906115550 57 39 0.0 0.0 0.00 0.00 0.00 100 972.1
20260906115033 56 39 0.0 0.0 0.00 0.00 0.00 100 972.1
20260906114310 55 39 0.0 0.0 0.00 0.00 0.00 100 972.0
20260906113804 55 39 0.0 0.0 0.00 0.00 0.00 100 972.0
20260906113522 55 39 0.0 0.0 0.00 0.00 0.00 100 971.9
20260906112752 54 39 0.0 0.0 0.00 0.00 0.00 100 971.9
20260906112245 54 39 0.0 0.0 0.00 0.00 0.00 100 971.8
20260906111740 54 39 0.0 0.0 0.00 0.00 0.00 100 971.8
20260906111233 54 39 0.0 0.0 0.00 0.00 0.00 100 971.7
20260906110948 54 39 0.0 0.0 0.00 0.00 0.00 100 971.7
20260906110225 54 39 0.0 0.0 0.00 0.00 0.00 100 971.7
20260906110216 54 39 0.0 0.0 0.00 0.00 0.00 100 971.7
20260906105438 54 39 0.0 0.0 0.00 0.00 0.00 100 971.6
20260906104704 54 39 0.0 0.0 0.00 0.00 0.00 100 971.7
20260906104158 54 39 0.0 0.0 0.00 0.00 0.00 100 971.5
20260906103651 54 39 0.0 0.0 0.00 0.00 0.00 100 971.5
20260906103146 54 39 0.0 0.0 0.00 0.00 0.00 100 971.5
20260906102902 54 39 0.0 0.0 0.00 0.00 0.00 100 971.5
20260906102134 54 39 0.0 0.0 0.00 0.00 0.00 99 971.5
20260906101628 54 39 0.0 0.0 0.00 0.00 0.00 99 971.5
20260906101122 54 39 0.0 0.0 0.00 0.00 0.00 100 971.4
20260906100615 54 39 0.0 0.0 0.00 0.00 0.00 99 971.4
20260906100110 54 39 0.0 0.0 0.00 0.00 0.00 99 971.3
20260906095604 54 39 0.0 0.0 0.00 0.00 0.00 99 971.3
20260906095323 54 39 0.0 0.0 0.00 0.00 0.00 99 971.2
20260906094552 54 39 0.0 0.0 0.00 0.00 0.00 99 971.3
20260906094046 54 39 0.0 0.0 0.00 0.00 0.00 99 971.3
20260906093539 54 39 0.0 0.0 0.00 0.00 0.00 99 971.3
20260906093033 54 39 0.0 0.0 0.00 0.00 0.00 99 971.2
20260906092750 55 39 0.0 0.0 0.00 0.00 0.00 99 971.3
20260906092244 55 39 0.0 0.0 0.00 0.00 0.00 99 971.2
20260906091735 55 39 0.0 0.0 0.00 0.00 0.00 99 971.1
20260906091010 55 39 0.0 0.0 0.00 0.00 0.00 99 971.1
20260906090503 55 39 0.0 0.0 0.00 0.00 0.00 99 971.0
20260906090223 55 39 0.0 0.0 0.00 0.00 0.00 99 971.0
20260906085452 55 39 0.0 0.0 0.00 0.00 0.00 99 971.1
20260906085219 55 39 0.0 0.0 0.00 0.00 0.00 99 971.0
20260906084440 55 39 0.0 0.0 0.00 0.00 0.00 99 970.9
20260906083934 55 39 0.0 0.0 0.00 0.00 0.00 99 970.7
20260906083639 55 39 0.0 0.0 0.00 0.00 0.00 99 970.6
20260906083520 55 39 0.0 0.0 0.00 0.00 0.00 99 970.7
20260906082639 55 39 0.0 0.0 0.00 0.00 0.00 99 970.6
20260906081907 55 39 0.0 0.0 0.00 0.00 0.00 99 970.5
20260906081408 55 39 0.0 0.0 0.00 0.00 0.00 99 970.5
20260906081128 55 39 0.0 0.0 0.00 0.00 0.00 99 970.5
20260906080405 56 39 0.0 0.0 0.00 0.00 0.00 99 970.4
20260906075904 56 39 0.0 0.0 0.00 0.00 0.00 99 970.4
20260906075404 56 39 0.0 0.0 0.00 0.00 0.00 99 970.5
20260906074904 56 39 0.0 0.0 0.00 0.00 0.00 99 970.5
20260906074405 56 39 0.0 0.0 0.00 0.00 0.00 99 970.5
20260906073905 56 39 0.0 0.0 0.00 0.00 0.00 99 970.4
20260906073401 56 39 0.0 0.0 0.00 0.00 0.00 99 970.4
20260906072900 56 39 0.0 0.0 0.00 0.00 0.00 99 970.3
20260906072400 56 39 0.0 0.0 0.00 0.00 0.00 99 970.3
20260906071900 56 39 0.0 0.0 0.00 0.00 0.00 99 970.3
20260906071357 56 39 0.0 0.0 0.00 0.00 0.00 99 970.2
20260906070858 56 39 0.0 0.0 0.00 0.00 0.00 99 970.2
20260906070357 57 39 0.0 0.0 0.00 0.00 0.00 99 970.3
20260906065900 57 39 0.0 0.0 0.00 0.00 0.00 99 970.3
20260906065619 57 39 0.0 0.0 0.00 0.00 0.00 99 970.3
20260906064852 57 39 0.0 0.0 0.00 0.00 0.00 99 970.3
20260906064352 57 39 0.0 0.0 0.00 0.00 0.00 99 970.2
20260906063849 57 39 0.0 0.0 0.00 0.00 0.00 99 970.2
20260906063351 57 39 0.0 0.0 0.00 0.00 0.00 99 970.2
20260906063340 57 39 0.0 0.0 0.00 0.00 0.00 99 970.2
20260906062348 57 39 0.0 0.0 0.00 0.00 0.00 99 970.3
20260906061846 57 39 0.0 0.0 0.00 0.00 0.00 99 970.3
20260906061347 57 39 0.0 0.0 0.00 0.00 0.00 99 970.2
20260906060843 57 39 0.0 0.0 0.00 0.00 0.00 99 970.3
20260906060344 58 39 0.0 0.0 0.00 0.00 0.00 99 970.3
20260906055843 58 39 0.0 0.0 0.00 0.00 0.00 99 970.2
20260906055343 58 39 0.0 0.0 0.00 0.00 0.00 98 970.2
20260906054839 58 39 0.0 0.0 0.00 0.00 0.00 98 970.3
20260906054601 58 39 0.0 0.0 0.00 0.00 0.00 98 970.3
20260906053839 58 39 0.0 0.0 0.00 0.00 0.00 98 970.3
20260906053337 58 39 0.0 0.0 0.00 0.00 0.00 98 970.3
20260906052837 58 39 0.0 0.0 0.00 0.00 0.00 98 970.3
20260906052338 58 39 0.0 0.0 0.00 0.00 0.00 98 970.4
20260906051839 58 39 0.0 0.0 0.00 0.00 0.00 98 970.4
20260906051603 59 39 0.0 0.0 0.00 0.00 0.00 98 970.4
20260906051101 59 39 0.0 0.0 0.00 0.00 0.00 97 970.4
20260906050334 59 39 0.0 0.0 0.00 0.00 0.00 97 970.4
20260906045834 59 39 0.0 0.0 0.00 0.00 0.00 97 970.4
20260906045334 59 39 0.0 0.0 0.00 0.00 0.00 97 970.5
20260906044835 59 39 0.0 0.0 0.00 0.00 0.00 97 970.4
20260906044334 59 39 0.0 0.0 0.00 0.00 0.00 97 970.3
20260906043833 60 39 0.0 0.0 0.00 0.00 0.00 97 970.3
20260906043334 60 39 0.0 0.0 0.00 0.00 0.00 97 970.3
20260906042834 60 39 0.0 0.0 0.00 0.00 0.00 97 970.2
20260906042335 60 39 0.0 0.0 0.00 0.00 0.00 97 970.2
20260906041830 60 39 0.0 0.0 0.00 0.00 0.00 97 970.2
20260906041330 60 39 0.0 0.0 0.00 0.00 0.00 97 970.3
20260906040830 60 39 0.0 0.0 0.00 0.00 0.00 97 970.2
20260906040330 59 39 0.0 0.0 0.00 0.00 0.00 97 970.2
20260906035832 60 39 0.0 0.0 0.00 0.00 0.00 97 970.3
20260906035556 60 39 0.0 0.0 0.00 0.00 0.00 97 970.3
20260906034828 60 39 0.0 0.0 0.00 0.00 0.00 97 970.3
20260906034329 60 39 0.0 0.0 0.00 0.01 0.00 97 970.2
20260906033827 60 39 0.0 0.0 0.00 0.01 0.00 96 970.3
20260906033325 60 39 0.0 0.0 0.00 0.01 0.00 97 970.4
20260906032825 60 39 0.0 0.0 0.00 0.02 0.00 97 970.4
20260906032326 60 39 0.0 0.0 0.00 0.03 0.00 96 970.3
20260906031823 60 39 0.0 0.0 0.00 0.03 0.00 96 970.2
20260906031321 60 39 0.0 0.0 0.00 0.03 0.00 96 970.2
20260906030821 60 39 0.0 0.0 0.00 0.03 0.00 96 970.2
20260906030319 60 39 0.0 0.0 0.00 0.04 0.00 95 970.2
20260906025819 60 39 0.0 0.0 0.00 0.04 0.00 95 970.1
20260906025318 60 39 0.0 0.0 0.00 0.04 0.00 95 970.2
20260906024817 61 39 0.0 0.0 0.00 0.04 0.00 95 970.1
20260906024535 61 39 0.0 0.0 0.00 0.04 0.00 95 970.0
20260906023817 61 39 0.0 0.0 0.00 0.04 0.00 95 970.0
20260906023319 61 39 0.0 0.0 0.00 0.04 0.00 94 969.9
20260906022814 61 39 0.0 0.0 0.00 0.04 0.00 94 969.9
20260906022313 61 39 0.0 0.0 0.00 0.04 0.00 93 969.8
20260906022306 61 39 0.0 0.0 0.00 0.04 0.00 93 969.8
20260906021519 62 39 0.0 0.0 0.00 0.04 0.00 93 969.7
20260906021407 62 39 0.0 0.0 0.00 0.04 0.00 93 969.7
20260906020315 62 39 0.0 0.0 0.00 0.04 0.00 92 969.6
20260906015813 62 39 0.0 0.0 0.00 0.04 0.00 92 969.7
20260906015315 62 39 0.0 0.0 0.00 0.04 0.00 92 969.7
20260906014816 62 39 0.0 0.0 0.00 0.04 0.00 91 969.5
20260906014315 62 39 0.0 0.0 0.00 0.04 0.00 91 969.4
20260906013813 63 39 0.0 0.0 0.00 0.04 0.00 90 969.5
20260906013314 63 39 0.0 0.0 0.00 0.04 0.00 90 969.5
20260906012813 63 39 0.0 0.0 0.00 0.04 0.00 90 969.4
20260906012535 63 39 0.0 0.0 0.00 0.04 0.00 90 969.4
20260906012037 63 39 0.0 0.0 0.00 0.04 0.00 89 969.3
20260906011313 64 39 0.0 0.0 0.00 0.04 0.00 88 969.2
20260906010815 64 39 0.0 0.0 0.00 0.04 0.00 87 969.2
20260906010313 64 39 0.0 0.0 0.00 0.04 0.00 86 969.2
20260906005815 65 39 0.0 0.0 0.00 0.04 0.00 85 969.2
20260906005311 65 39 0.0 0.0 0.00 0.04 0.00 84 969.0
20260906004812 65 39 0.0 0.0 0.00 0.04 0.00 83 969.0
20260906004311 66 39 0.0 0.0 0.00 0.04 0.00 82 969.1
20260906004034 66 39 0.0 0.0 0.00 0.04 0.00 81 969.0
20260906003531 67 39 0.0 0.0 0.00 0.04 0.00 81 968.9
20260906002807 67 39 0.0 0.0 0.00 0.04 0.00 79 968.9
20260906002523 67 39 0.0 0.0 0.00 0.04 0.00 78 968.8
20260906001806 68 39 0.0 0.0 0.00 0.04 0.00 77 968.7
20260906001528 68 39 0.0 0.0 0.00 0.04 0.00 75 968.7
20260906001011 69 39 0.0 0.0 0.00 0.04 0.00 73 968.6
20260906000856 69 39 0.0 0.0 0.00 0.04 0.00 74 968.5
20260905235803 70 39 0.0 0.0 0.00 0.04 0.00 72 968.6
20260905235257 70 39 0.0 0.0 0.00 0.04 0.00 72 968.5
20260905234752 71 39 0.0 0.0 0.00 0.04 0.00 70 968.5
20260905234245 71 39 0.0 0.0 0.00 0.04 0.00 69 968.5
20260905233742 72 39 0.0 0.0 0.00 0.04 0.00 68 968.5
20260905233239 72 39 0.0 0.0 0.00 0.04 0.00 67 968.5
20260905232737 73 39 0.0 0.0 0.00 0.04 0.00 67 968.4
20260905232457 73 39 0.0 2.0 0.00 0.04 0.00 66 968.4
20260905231738 74 39 0.0 2.0 0.00 0.04 0.00 64 968.4
20260905231236 74 39 1.0 2.0 0.00 0.04 0.00 64 968.4
20260905230734 74 27 1.0 2.0 0.00 0.04 0.00 64 968.3
20260905230231 75 36 1.0 3.0 0.00 0.04 0.00 62 968.4
20260905225729 75 39 1.0 3.0 0.00 0.04 0.00 62 968.4
20260905225229 76 34 1.0 3.0 0.00 0.04 0.00 60 968.3
20260905224731 77 42 1.0 4.0 0.00 0.04 0.00 60 968.3
20260905224228 78 40 1.0 4.0 0.00 0.04 0.00 58 968.3
20260905223957 78 38 1.0 2.0 0.00 0.04 0.00 58 968.2
20260905223227 78 350 1.0 2.0 0.00 0.04 0.00 59 968.2
20260905222727 78 40 1.0 5.0 0.00 0.04 0.00 58 968.2